#datetime,building,power
2023-09-21T00:00:00,mcc,54.46
2023-09-21T00:01:00,mcc,52.84
2023-09-21T00:02:00,mcc,54.84
2023-09-21T00:03:00,mcc,52.49
2023-09-21T00:04:00,mcc,49.13
2023-09-21T00:05:00,mcc,48.38
2023-09-21T00:06:00,mcc,46.66
2023-09-21T00:07:00,mcc,49.29
2023-09-21T00:08:00,mcc,51.67
2023-09-21T00:09:00,mcc,51.64
2023-09-21T00:10:00,mcc,50.07
2023-09-21T00:11:00,mcc,48.63
2023-09-21T00:12:00,mcc,49.11
2023-09-21T00:13:00,mcc,47.53
2023-09-21T00:14:00,mcc,45.30
2023-09-21T00:15:00,mcc,48.25
2023-09-21T00:16:00,mcc,55.95
2023-09-21T00:17:00,mcc,50.20
2023-09-21T00:18:00,mcc,47.88
2023-09-21T00:19:00,mcc,44.23
2023-09-21T00:20:00,mcc,45.26
2023-09-21T00:21:00,mcc,46.97
2023-09-21T00:22:00,mcc,44.08
2023-09-21T00:23:00,mcc,45.22
2023-09-21T00:24:00,mcc,38.38
2023-09-21T00:25:00,mcc,37.41
2023-09-21T00:26:00,mcc,37.31
2023-09-21T00:27:00,mcc,38.68
2023-09-21T00:28:00,mcc,40.18
2023-09-21T00:29:00,mcc,38.84
2023-09-21T00:30:00,mcc,40.63
2023-09-21T00:31:00,mcc,37.69
2023-09-21T00:32:00,mcc,37.85
2023-09-21T00:33:00,mcc,40.92
2023-09-21T00:34:00,mcc,37.04
2023-09-21T00:35:00,mcc,45.07
2023-09-21T00:36:00,mcc,39.75
2023-09-21T00:37:00,mcc,38.06
2023-09-21T00:38:00,mcc,38.77
2023-09-21T00:39:00,mcc,40.09
2023-09-21T00:40:00,mcc,38.03
2023-09-21T00:41:00,mcc,38.90
2023-09-21T00:42:00,mcc,40.85
2023-09-21T00:43:00,mcc,38.97
2023-09-21T00:44:00,mcc,36.21
2023-09-21T00:45:00,mcc,49.61
2023-09-21T00:46:00,mcc,46.51
2023-09-21T00:47:00,mcc,48.08
2023-09-21T00:48:00,mcc,62.77
2023-09-21T00:49:00,mcc,37.90
2023-09-21T00:50:00,mcc,36.10
2023-09-21T00:51:00,mcc,39.04
2023-09-21T00:52:00,mcc,38.28
2023-09-21T00:53:00,mcc,44.98
2023-09-21T00:54:00,mcc,46.85
2023-09-21T00:55:00,mcc,37.19
2023-09-21T00:56:00,mcc,36.80
2023-09-21T00:57:00,mcc,39.07
2023-09-21T00:58:00,mcc,36.63
2023-09-21T00:59:00,mcc,37.39
2023-09-21T01:00:00,mcc,38.55
2023-09-21T01:01:00,mcc,36.30
2023-09-21T01:02:00,mcc,34.57
2023-09-21T01:03:00,mcc,36.81
2023-09-21T01:04:00,mcc,34.26
2023-09-21T01:05:00,mcc,36.25
2023-09-21T01:06:00,mcc,37.99
2023-09-21T01:07:00,mcc,36.54
2023-09-21T01:08:00,mcc,38.06
2023-09-21T01:09:00,mcc,38.72
2023-09-21T01:10:00,mcc,35.90
2023-09-21T01:11:00,mcc,34.57
2023-09-21T01:12:00,mcc,44.93
2023-09-21T01:13:00,mcc,33.97
2023-09-21T01:14:00,mcc,35.69
2023-09-21T01:15:00,mcc,39.58
2023-09-21T01:16:00,mcc,35.69
2023-09-21T01:17:00,mcc,34.52
2023-09-21T01:18:00,mcc,37.81
2023-09-21T01:19:00,mcc,36.28
2023-09-21T01:20:00,mcc,37.02
2023-09-21T01:21:00,mcc,38.85
2023-09-21T01:22:00,mcc,37.00
2023-09-21T01:23:00,mcc,36.73
2023-09-21T01:24:00,mcc,39.64
2023-09-21T01:25:00,mcc,37.65
2023-09-21T01:26:00,mcc,36.48
2023-09-21T01:27:00,mcc,39.35
2023-09-21T01:28:00,mcc,38.43
2023-09-21T01:29:00,mcc,38.14
2023-09-21T01:30:00,mcc,38.16
2023-09-21T01:31:00,mcc,37.00
2023-09-21T01:32:00,mcc,37.59
2023-09-21T01:33:00,mcc,40.86
2023-09-21T01:34:00,mcc,37.89
2023-09-21T01:35:00,mcc,39.42
2023-09-21T01:36:00,mcc,39.34
2023-09-21T01:37:00,mcc,38.03
2023-09-21T01:38:00,mcc,37.06
2023-09-21T01:39:00,mcc,38.67
2023-09-21T01:40:00,mcc,35.55
2023-09-21T01:41:00,mcc,36.23
2023-09-21T01:42:00,mcc,36.02
2023-09-21T01:43:00,mcc,36.93
2023-09-21T01:44:00,mcc,36.51
2023-09-21T01:45:00,mcc,37.33
2023-09-21T01:46:00,mcc,37.58
2023-09-21T01:47:00,mcc,37.02
2023-09-21T01:48:00,mcc,38.11
2023-09-21T01:49:00,mcc,46.08
2023-09-21T01:50:00,mcc,38.17
2023-09-21T01:51:00,mcc,38.93
2023-09-21T01:52:00,mcc,37.92
2023-09-21T01:53:00,mcc,37.83
2023-09-21T01:54:00,mcc,48.08
2023-09-21T01:55:00,mcc,35.71
2023-09-21T01:56:00,mcc,37.53
2023-09-21T01:57:00,mcc,35.04
2023-09-21T01:58:00,mcc,34.51
2023-09-21T01:59:00,mcc,34.81
2023-09-21T02:00:00,mcc,36.54
2023-09-21T02:01:00,mcc,41.78
2023-09-21T02:02:00,mcc,41.31
2023-09-21T02:03:00,mcc,39.77
2023-09-21T02:04:00,mcc,38.26
2023-09-21T02:05:00,mcc,39.58
2023-09-21T02:06:00,mcc,38.80
2023-09-21T02:07:00,mcc,47.82
2023-09-21T02:08:00,mcc,39.99
2023-09-21T02:09:00,mcc,36.12
2023-09-21T02:10:00,mcc,36.07
2023-09-21T02:11:00,mcc,34.57
2023-09-21T02:12:00,mcc,32.33
2023-09-21T02:13:00,mcc,32.48
2023-09-21T02:14:00,mcc,33.73
2023-09-21T02:15:00,mcc,34.05
2023-09-21T02:16:00,mcc,33.60
2023-09-21T02:17:00,mcc,35.94
2023-09-21T02:18:00,mcc,36.07
2023-09-21T02:19:00,mcc,35.94
2023-09-21T02:20:00,mcc,35.82
2023-09-21T02:21:00,mcc,39.57
2023-09-21T02:22:00,mcc,39.46
2023-09-21T02:23:00,mcc,38.67
2023-09-21T02:24:00,mcc,38.99
2023-09-21T02:25:00,mcc,39.49
2023-09-21T02:26:00,mcc,39.70
2023-09-21T02:27:00,mcc,48.78
2023-09-21T02:28:00,mcc,37.64
2023-09-21T02:29:00,mcc,38.62
2023-09-21T02:30:00,mcc,37.99
2023-09-21T02:31:00,mcc,38.59
2023-09-21T02:32:00,mcc,34.86
2023-09-21T02:33:00,mcc,37.08
2023-09-21T02:34:00,mcc,38.14
2023-09-21T02:35:00,mcc,35.91
2023-09-21T02:36:00,mcc,38.84
2023-09-21T02:37:00,mcc,38.93
2023-09-21T02:38:00,mcc,36.42
2023-09-21T02:39:00,mcc,36.18
2023-09-21T02:40:00,mcc,38.53
2023-09-21T02:41:00,mcc,36.88
2023-09-21T02:42:00,mcc,36.64
2023-09-21T02:43:00,mcc,36.86
2023-09-21T02:44:00,mcc,35.40
2023-09-21T02:45:00,mcc,33.63
2023-09-21T02:46:00,mcc,38.21
2023-09-21T02:47:00,mcc,35.26
2023-09-21T02:48:00,mcc,37.14
2023-09-21T02:49:00,mcc,37.27
2023-09-21T02:50:00,mcc,35.80
2023-09-21T02:51:00,mcc,34.25
2023-09-21T02:52:00,mcc,36.31
2023-09-21T02:53:00,mcc,37.54
2023-09-21T02:54:00,mcc,40.04
2023-09-21T02:55:00,mcc,38.59
2023-09-21T02:56:00,mcc,37.27
2023-09-21T02:57:00,mcc,40.18
2023-09-21T02:58:00,mcc,38.03
2023-09-21T02:59:00,mcc,37.86
2023-09-21T03:00:00,mcc,36.58
2023-09-21T03:01:00,mcc,47.96
2023-09-21T03:02:00,mcc,47.01
2023-09-21T03:03:00,mcc,35.93
2023-09-21T03:04:00,mcc,37.15
2023-09-21T03:05:00,mcc,34.26
2023-09-21T03:06:00,mcc,32.57
2023-09-21T03:07:00,mcc,32.84
2023-09-21T03:08:00,mcc,33.68
2023-09-21T03:09:00,mcc,33.14
2023-09-21T03:10:00,mcc,35.75
2023-09-21T03:11:00,mcc,33.11
2023-09-21T03:12:00,mcc,34.30
2023-09-21T03:13:00,mcc,33.23
2023-09-21T03:14:00,mcc,32.44
2023-09-21T03:15:00,mcc,33.58
2023-09-21T03:16:00,mcc,35.57
2023-09-21T03:17:00,mcc,34.37
2023-09-21T03:18:00,mcc,33.45
2023-09-21T03:19:00,mcc,32.70
2023-09-21T03:20:00,mcc,34.58
2023-09-21T03:21:00,mcc,35.48
2023-09-21T03:22:00,mcc,36.49
2023-09-21T03:23:00,mcc,32.73
2023-09-21T03:24:00,mcc,43.61
2023-09-21T03:25:00,mcc,37.65
2023-09-21T03:26:00,mcc,36.48
2023-09-21T03:27:00,mcc,36.56
2023-09-21T03:28:00,mcc,41.70
2023-09-21T03:29:00,mcc,40.45
2023-09-21T03:30:00,mcc,43.13
2023-09-21T03:31:00,mcc,45.50
2023-09-21T03:32:00,mcc,42.01
2023-09-21T03:33:00,mcc,42.81
2023-09-21T03:34:00,mcc,36.92
2023-09-21T03:35:00,mcc,33.73
2023-09-21T03:36:00,mcc,33.22
2023-09-21T03:37:00,mcc,33.30
2023-09-21T03:38:00,mcc,31.05
2023-09-21T03:39:00,mcc,31.53
2023-09-21T03:40:00,mcc,34.30
2023-09-21T03:41:00,mcc,31.22
2023-09-21T03:42:00,mcc,31.97
2023-09-21T03:43:00,mcc,42.62
2023-09-21T03:44:00,mcc,32.37
2023-09-21T03:45:00,mcc,30.54
2023-09-21T03:46:00,mcc,35.51
2023-09-21T03:47:00,mcc,32.74
2023-09-21T03:48:00,mcc,33.01
2023-09-21T03:49:00,mcc,34.53
2023-09-21T03:50:00,mcc,31.71
2023-09-21T03:51:00,mcc,32.28
2023-09-21T03:52:00,mcc,34.04
2023-09-21T03:53:00,mcc,32.54
2023-09-21T03:54:00,mcc,34.73
2023-09-21T03:55:00,mcc,37.25
2023-09-21T03:56:00,mcc,36.77
2023-09-21T03:57:00,mcc,37.49
2023-09-21T03:58:00,mcc,39.32
2023-09-21T03:59:00,mcc,36.20
2023-09-21T04:00:00,mcc,37.12
2023-09-21T04:01:00,mcc,38.11
2023-09-21T04:02:00,mcc,46.15
2023-09-21T04:03:00,mcc,36.38
2023-09-21T04:04:00,mcc,37.30
2023-09-21T04:05:00,mcc,36.41
2023-09-21T04:06:00,mcc,35.69
2023-09-21T04:07:00,mcc,37.43
2023-09-21T04:08:00,mcc,49.02
2023-09-21T04:09:00,mcc,37.77
2023-09-21T04:10:00,mcc,37.14
2023-09-21T04:11:00,mcc,36.97
2023-09-21T04:12:00,mcc,38.62
2023-09-21T04:13:00,mcc,36.47
2023-09-21T04:14:00,mcc,36.94
2023-09-21T04:15:00,mcc,36.13
2023-09-21T04:16:00,mcc,37.22
2023-09-21T04:17:00,mcc,37.49
2023-09-21T04:18:00,mcc,38.44
2023-09-21T04:19:00,mcc,36.81
2023-09-21T04:20:00,mcc,38.81
2023-09-21T04:21:00,mcc,46.73
2023-09-21T04:22:00,mcc,38.98
2023-09-21T04:23:00,mcc,38.41
2023-09-21T04:24:00,mcc,41.94
2023-09-21T04:25:00,mcc,44.84
2023-09-21T04:26:00,mcc,47.88
2023-09-21T04:27:00,mcc,47.63
2023-09-21T04:28:00,mcc,47.38
2023-09-21T04:29:00,mcc,46.93
2023-09-21T04:30:00,mcc,48.00
2023-09-21T04:31:00,mcc,48.38
2023-09-21T04:32:00,mcc,46.28
2023-09-21T04:33:00,mcc,51.13
2023-09-21T04:34:00,mcc,45.94
2023-09-21T04:35:00,mcc,44.21
2023-09-21T04:36:00,mcc,43.80
2023-09-21T04:37:00,mcc,43.32
2023-09-21T04:38:00,mcc,43.41
2023-09-21T04:39:00,mcc,43.26
2023-09-21T04:40:00,mcc,52.95
2023-09-21T04:41:00,mcc,44.39
2023-09-21T04:42:00,mcc,45.23
2023-09-21T04:43:00,mcc,45.79
2023-09-21T04:44:00,mcc,46.90
2023-09-21T04:45:00,mcc,45.23
2023-09-21T04:46:00,mcc,47.07
2023-09-21T04:47:00,mcc,49.28
2023-09-21T04:48:00,mcc,47.33
2023-09-21T04:49:00,mcc,48.32
2023-09-21T04:50:00,mcc,49.28
2023-09-21T04:51:00,mcc,49.49
2023-09-21T04:52:00,mcc,49.78
2023-09-21T04:53:00,mcc,50.72
2023-09-21T04:54:00,mcc,49.35
2023-09-21T04:55:00,mcc,49.58
2023-09-21T04:56:00,mcc,52.98
2023-09-21T04:57:00,mcc,51.39
2023-09-21T04:58:00,mcc,50.11
2023-09-21T04:59:00,mcc,54.21
2023-09-21T05:00:00,mcc,48.50
2023-09-21T05:01:00,mcc,47.33
2023-09-21T05:02:00,mcc,49.76
2023-09-21T05:03:00,mcc,47.52
2023-09-21T05:04:00,mcc,47.77
2023-09-21T05:05:00,mcc,49.59
2023-09-21T05:06:00,mcc,46.56
2023-09-21T05:07:00,mcc,57.29
2023-09-21T05:08:00,mcc,58.74
2023-09-21T05:09:00,mcc,56.57
2023-09-21T05:10:00,mcc,44.82
2023-09-21T05:11:00,mcc,47.77
2023-09-21T05:12:00,mcc,43.28
2023-09-21T05:13:00,mcc,44.90
2023-09-21T05:14:00,mcc,47.69
2023-09-21T05:15:00,mcc,47.78
2023-09-21T05:16:00,mcc,44.71
2023-09-21T05:17:00,mcc,48.06
2023-09-21T05:18:00,mcc,47.03
2023-09-21T05:19:00,mcc,54.37
2023-09-21T05:20:00,mcc,46.76
2023-09-21T05:21:00,mcc,47.87
2023-09-21T05:22:00,mcc,46.91
2023-09-21T05:23:00,mcc,49.03
2023-09-21T05:24:00,mcc,49.76
2023-09-21T05:25:00,mcc,48.12
2023-09-21T05:26:00,mcc,47.78
2023-09-21T05:27:00,mcc,52.09
2023-09-21T05:28:00,mcc,49.79
2023-09-21T05:29:00,mcc,48.16
2023-09-21T05:30:00,mcc,48.37
2023-09-21T05:31:00,mcc,46.16
2023-09-21T05:32:00,mcc,47.39
2023-09-21T05:33:00,mcc,49.55
2023-09-21T05:34:00,mcc,46.50
2023-09-21T05:35:00,mcc,45.96
2023-09-21T05:36:00,mcc,47.46
2023-09-21T05:37:00,mcc,46.61
2023-09-21T05:38:00,mcc,42.99
2023-09-21T05:39:00,mcc,44.97
2023-09-21T05:40:00,mcc,41.45
2023-09-21T05:41:00,mcc,42.27
2023-09-21T05:42:00,mcc,44.45
2023-09-21T05:43:00,mcc,44.23
2023-09-21T05:44:00,mcc,44.72
2023-09-21T05:45:00,mcc,44.23
2023-09-21T05:46:00,mcc,44.40
2023-09-21T05:47:00,mcc,43.00
2023-09-21T05:48:00,mcc,41.37
2023-09-21T05:49:00,mcc,40.72
2023-09-21T05:50:00,mcc,41.33
2023-09-21T05:51:00,mcc,41.82
2023-09-21T05:52:00,mcc,44.50
2023-09-21T05:53:00,mcc,43.63
2023-09-21T05:54:00,mcc,44.07
2023-09-21T05:55:00,mcc,44.81
2023-09-21T05:56:00,mcc,43.71
2023-09-21T05:57:00,mcc,53.81
2023-09-21T05:58:00,mcc,49.08
2023-09-21T05:59:00,mcc,61.93
2023-09-21T06:00:00,mcc,46.60
2023-09-21T06:01:00,mcc,63.30
2023-09-21T06:02:00,mcc,60.78
2023-09-21T06:03:00,mcc,62.80
2023-09-21T06:04:00,mcc,63.13
2023-09-21T06:05:00,mcc,61.30
2023-09-21T06:06:00,mcc,61.25
2023-09-21T06:07:00,mcc,63.82
2023-09-21T06:08:00,mcc,63.14
2023-09-21T06:09:00,mcc,62.78
2023-09-21T06:10:00,mcc,60.83
2023-09-21T06:11:00,mcc,58.62
2023-09-21T06:12:00,mcc,58.43
2023-09-21T06:13:00,mcc,70.70
2023-09-21T06:14:00,mcc,68.67
2023-09-21T06:15:00,mcc,63.31
2023-09-21T06:16:00,mcc,78.26
2023-09-21T06:17:00,mcc,69.17
2023-09-21T06:18:00,mcc,61.48
2023-09-21T06:19:00,mcc,71.08
2023-09-21T06:20:00,mcc,67.82
2023-09-21T06:21:00,mcc,62.35
2023-09-21T06:22:00,mcc,57.30
2023-09-21T06:23:00,mcc,55.44
2023-09-21T06:24:00,mcc,53.39
2023-09-21T06:25:00,mcc,55.00
2023-09-21T06:26:00,mcc,60.67
2023-09-21T06:27:00,mcc,50.57
2023-09-21T06:28:00,mcc,55.80
2023-09-21T06:29:00,mcc,50.92
2023-09-21T06:30:00,mcc,50.12
2023-09-21T06:31:00,mcc,58.57
2023-09-21T06:32:00,mcc,59.73
2023-09-21T06:33:00,mcc,52.93
2023-09-21T06:34:00,mcc,51.09
2023-09-21T06:35:00,mcc,60.66
2023-09-21T06:36:00,mcc,60.69
2023-09-21T06:37:00,mcc,60.91
2023-09-21T06:38:00,mcc,52.89
2023-09-21T06:39:00,mcc,51.91
2023-09-21T06:40:00,mcc,51.02
2023-09-21T06:41:00,mcc,51.57
2023-09-21T06:42:00,mcc,49.81
2023-09-21T06:43:00,mcc,50.43
2023-09-21T06:44:00,mcc,49.84
2023-09-21T06:45:00,mcc,52.85
2023-09-21T06:46:00,mcc,52.64
2023-09-21T06:47:00,mcc,51.75
2023-09-21T06:48:00,mcc,61.61
2023-09-21T06:49:00,mcc,59.99
2023-09-21T06:50:00,mcc,58.69
2023-09-21T06:51:00,mcc,63.01
2023-09-21T06:52:00,mcc,58.56
2023-09-21T06:53:00,mcc,61.22
2023-09-21T06:54:00,mcc,71.53
2023-09-21T06:55:00,mcc,63.64
2023-09-21T06:56:00,mcc,61.45
2023-09-21T06:57:00,mcc,63.34
2023-09-21T06:58:00,mcc,56.04
2023-09-21T06:59:00,mcc,55.09
2023-09-21T07:00:00,mcc,58.09
2023-09-21T07:01:00,mcc,59.43
2023-09-21T07:02:00,mcc,61.12
2023-09-21T07:03:00,mcc,69.64
2023-09-21T07:04:00,mcc,66.20
2023-09-21T07:05:00,mcc,70.31
2023-09-21T07:06:00,mcc,87.10
2023-09-21T07:07:00,mcc,74.45
2023-09-21T07:08:00,mcc,76.68
2023-09-21T07:09:00,mcc,70.62
2023-09-21T07:10:00,mcc,69.70
2023-09-21T07:11:00,mcc,65.59
2023-09-21T07:12:00,mcc,72.46
2023-09-21T07:13:00,mcc,71.30
2023-09-21T07:14:00,mcc,65.80
2023-09-21T07:15:00,mcc,64.40
2023-09-21T07:16:00,mcc,67.73
2023-09-21T07:17:00,mcc,65.93
2023-09-21T07:18:00,mcc,64.52
2023-09-21T07:19:00,mcc,58.63
2023-09-21T07:20:00,mcc,56.48
2023-09-21T07:21:00,mcc,57.02
2023-09-21T07:22:00,mcc,65.52
2023-09-21T07:23:00,mcc,58.34
2023-09-21T07:24:00,mcc,64.74
2023-09-21T07:25:00,mcc,65.70
2023-09-21T07:26:00,mcc,55.03
2023-09-21T07:27:00,mcc,56.30
2023-09-21T07:28:00,mcc,60.67
2023-09-21T07:29:00,mcc,58.87
2023-09-21T07:30:00,mcc,64.86
2023-09-21T07:31:00,mcc,56.48
2023-09-21T07:32:00,mcc,65.57
2023-09-21T07:33:00,mcc,77.77
2023-09-21T07:34:00,mcc,60.12
2023-09-21T07:35:00,mcc,60.26
2023-09-21T07:36:00,mcc,60.29
2023-09-21T07:37:00,mcc,58.66
2023-09-21T07:38:00,mcc,66.53
2023-09-21T07:39:00,mcc,63.31
2023-09-21T07:40:00,mcc,58.29
2023-09-21T07:41:00,mcc,59.81
2023-09-21T07:42:00,mcc,61.91
2023-09-21T07:43:00,mcc,61.63
2023-09-21T07:44:00,mcc,65.42
2023-09-21T07:45:00,mcc,61.11
2023-09-21T07:46:00,mcc,60.98
2023-09-21T07:47:00,mcc,61.25
2023-09-21T07:48:00,mcc,65.14
2023-09-21T07:49:00,mcc,72.74
2023-09-21T07:50:00,mcc,59.62
2023-09-21T07:51:00,mcc,60.18
2023-09-21T07:52:00,mcc,60.17
2023-09-21T07:53:00,mcc,59.81
2023-09-21T07:54:00,mcc,64.40
2023-09-21T07:55:00,mcc,65.12
2023-09-21T07:56:00,mcc,61.66
2023-09-21T07:57:00,mcc,63.83
2023-09-21T07:58:00,mcc,62.94
2023-09-21T07:59:00,mcc,72.59
2023-09-21T08:00:00,mcc,65.45
2023-09-21T08:01:00,mcc,73.57
2023-09-21T08:02:00,mcc,69.95
2023-09-21T08:03:00,mcc,72.21
2023-09-21T08:04:00,mcc,70.21
2023-09-21T08:05:00,mcc,74.78
2023-09-21T08:06:00,mcc,68.94
2023-09-21T08:07:00,mcc,68.98
2023-09-21T08:08:00,mcc,70.80
2023-09-21T08:09:00,mcc,71.00
2023-09-21T08:10:00,mcc,72.85
2023-09-21T08:11:00,mcc,77.07
2023-09-21T08:12:00,mcc,70.90
2023-09-21T08:13:00,mcc,69.87
2023-09-21T08:14:00,mcc,69.75
2023-09-21T08:15:00,mcc,68.27
2023-09-21T08:16:00,mcc,66.71
2023-09-21T08:17:00,mcc,78.39
2023-09-21T08:18:00,mcc,69.24
2023-09-21T08:19:00,mcc,84.86
2023-09-21T08:20:00,mcc,72.29
2023-09-21T08:21:00,mcc,72.16
2023-09-21T08:22:00,mcc,71.66
2023-09-21T08:23:00,mcc,74.52
2023-09-21T08:24:00,mcc,70.63
2023-09-21T08:25:00,mcc,70.34
2023-09-21T08:26:00,mcc,71.72
2023-09-21T08:27:00,mcc,74.92
2023-09-21T08:28:00,mcc,73.96
2023-09-21T08:29:00,mcc,72.23
2023-09-21T08:30:00,mcc,73.95
2023-09-21T08:31:00,mcc,71.69
2023-09-21T08:32:00,mcc,72.22
2023-09-21T08:33:00,mcc,71.58
2023-09-21T08:34:00,mcc,73.92
2023-09-21T08:35:00,mcc,76.89
2023-09-21T08:36:00,mcc,69.90
2023-09-21T08:37:00,mcc,70.23
2023-09-21T08:38:00,mcc,72.76
2023-09-21T08:39:00,mcc,69.84
2023-09-21T08:40:00,mcc,76.66
2023-09-21T08:41:00,mcc,69.11
2023-09-21T08:42:00,mcc,72.13
2023-09-21T08:43:00,mcc,82.20
2023-09-21T08:44:00,mcc,68.44
2023-09-21T08:45:00,mcc,79.61
2023-09-21T08:46:00,mcc,102.68
2023-09-21T08:47:00,mcc,79.98
2023-09-21T08:48:00,mcc,79.94
2023-09-21T08:49:00,mcc,78.68
2023-09-21T08:50:00,mcc,68.76
2023-09-21T08:51:00,mcc,69.31
2023-09-21T08:52:00,mcc,77.69
2023-09-21T08:53:00,mcc,71.72
2023-09-21T08:54:00,mcc,76.79
2023-09-21T08:55:00,mcc,75.11
2023-09-21T08:56:00,mcc,73.91
2023-09-21T08:57:00,mcc,73.54
2023-09-21T08:58:00,mcc,83.37
2023-09-21T08:59:00,mcc,75.52
2023-09-21T09:00:00,mcc,73.91
2023-09-21T09:01:00,mcc,72.24
2023-09-21T09:02:00,mcc,91.21
2023-09-21T09:03:00,mcc,74.80
2023-09-21T09:04:00,mcc,82.25
2023-09-21T09:05:00,mcc,74.06
2023-09-21T09:06:00,mcc,73.27
2023-09-21T09:07:00,mcc,72.00
2023-09-21T09:08:00,mcc,69.28
2023-09-21T09:09:00,mcc,81.35
2023-09-21T09:10:00,mcc,66.75
2023-09-21T09:11:00,mcc,69.38
2023-09-21T09:12:00,mcc,68.29
2023-09-21T09:13:00,mcc,75.18
2023-09-21T09:14:00,mcc,75.55
2023-09-21T09:15:00,mcc,76.84
2023-09-21T09:16:00,mcc,78.95
2023-09-21T09:17:00,mcc,70.52
2023-09-21T09:18:00,mcc,72.94
2023-09-21T09:19:00,mcc,73.19
2023-09-21T09:20:00,mcc,83.72
2023-09-21T09:21:00,mcc,77.70
2023-09-21T09:22:00,mcc,68.99
2023-09-21T09:23:00,mcc,79.32
2023-09-21T09:24:00,mcc,70.79
2023-09-21T09:25:00,mcc,71.04
2023-09-21T09:26:00,mcc,79.21
2023-09-21T09:27:00,mcc,77.49
2023-09-21T09:28:00,mcc,81.40
2023-09-21T09:29:00,mcc,73.59
2023-09-21T09:30:00,mcc,74.22
2023-09-21T09:31:00,mcc,73.59
2023-09-21T09:32:00,mcc,72.63
2023-09-21T09:33:00,mcc,79.44
2023-09-21T09:34:00,mcc,70.01
2023-09-21T09:35:00,mcc,79.35
2023-09-21T09:36:00,mcc,71.80
2023-09-21T09:37:00,mcc,75.86
2023-09-21T09:38:00,mcc,74.62
2023-09-21T09:39:00,mcc,67.98
2023-09-21T09:40:00,mcc,72.81
2023-09-21T09:41:00,mcc,72.86
2023-09-21T09:42:00,mcc,68.24
2023-09-21T09:43:00,mcc,66.18
2023-09-21T09:44:00,mcc,68.28
2023-09-21T09:45:00,mcc,73.35
2023-09-21T09:46:00,mcc,92.15
2023-09-21T09:47:00,mcc,70.92
2023-09-21T09:48:00,mcc,69.80
2023-09-21T09:49:00,mcc,68.20
2023-09-21T09:50:00,mcc,92.95
2023-09-21T09:51:00,mcc,70.21
2023-09-21T09:52:00,mcc,68.50
2023-09-21T09:53:00,mcc,78.77
2023-09-21T09:54:00,mcc,74.12
2023-09-21T09:55:00,mcc,72.53
2023-09-21T09:56:00,mcc,79.41
2023-09-21T09:57:00,mcc,78.42
2023-09-21T09:58:00,mcc,71.02
2023-09-21T09:59:00,mcc,71.14
2023-09-21T10:00:00,mcc,70.08
2023-09-21T10:01:00,mcc,77.23
2023-09-21T10:02:00,mcc,66.69
2023-09-21T10:03:00,mcc,66.77
2023-09-21T10:04:00,mcc,78.03
2023-09-21T10:05:00,mcc,74.38
2023-09-21T10:06:00,mcc,73.13
2023-09-21T10:07:00,mcc,69.40
2023-09-21T10:08:00,mcc,70.34
2023-09-21T10:09:00,mcc,70.22
2023-09-21T10:10:00,mcc,70.33
2023-09-21T10:11:00,mcc,80.94
2023-09-21T10:12:00,mcc,72.25
2023-09-21T10:13:00,mcc,84.49
2023-09-21T10:14:00,mcc,70.81
2023-09-21T10:15:00,mcc,69.23
2023-09-21T10:16:00,mcc,91.28
2023-09-21T10:17:00,mcc,72.40
2023-09-21T10:18:00,mcc,69.59
2023-09-21T10:19:00,mcc,68.96
2023-09-21T10:20:00,mcc,73.61
2023-09-21T10:21:00,mcc,80.71
2023-09-21T10:22:00,mcc,79.56
2023-09-21T10:23:00,mcc,75.87
2023-09-21T10:24:00,mcc,72.25
2023-09-21T10:25:00,mcc,86.63
2023-09-21T10:26:00,mcc,85.57
2023-09-21T10:27:00,mcc,82.65
2023-09-21T10:28:00,mcc,72.82
2023-09-21T10:29:00,mcc,73.76
2023-09-21T10:30:00,mcc,71.17
2023-09-21T10:31:00,mcc,70.62
2023-09-21T10:32:00,mcc,69.27
2023-09-21T10:33:00,mcc,78.12
2023-09-21T10:34:00,mcc,80.33
2023-09-21T10:35:00,mcc,69.46
2023-09-21T10:36:00,mcc,72.75
2023-09-21T10:37:00,mcc,80.37
2023-09-21T10:38:00,mcc,81.05
2023-09-21T10:39:00,mcc,76.25
2023-09-21T10:40:00,mcc,72.39
2023-09-21T10:41:00,mcc,74.49
2023-09-21T10:42:00,mcc,72.80
2023-09-21T10:43:00,mcc,75.47
2023-09-21T10:44:00,mcc,74.99
2023-09-21T10:45:00,mcc,75.79
2023-09-21T10:46:00,mcc,75.11
2023-09-21T10:47:00,mcc,73.80
2023-09-21T10:48:00,mcc,71.56
2023-09-21T10:49:00,mcc,73.61
2023-09-21T10:50:00,mcc,80.47
2023-09-21T10:51:00,mcc,79.28
2023-09-21T10:52:00,mcc,82.83
2023-09-21T10:53:00,mcc,86.82
2023-09-21T10:54:00,mcc,83.42
2023-09-21T10:55:00,mcc,81.88
2023-09-21T10:56:00,mcc,81.93
2023-09-21T10:57:00,mcc,84.46
2023-09-21T10:58:00,mcc,85.07
2023-09-21T10:59:00,mcc,86.47
2023-09-21T11:00:00,mcc,94.26
2023-09-21T11:01:00,mcc,94.85
2023-09-21T11:02:00,mcc,93.76
2023-09-21T11:03:00,mcc,89.82
2023-09-21T11:04:00,mcc,85.54
2023-09-21T11:05:00,mcc,85.32
2023-09-21T11:06:00,mcc,83.14
2023-09-21T11:07:00,mcc,96.98
2023-09-21T11:08:00,mcc,95.32
2023-09-21T11:09:00,mcc,83.39
2023-09-21T11:10:00,mcc,91.80
2023-09-21T11:11:00,mcc,92.61
2023-09-21T11:12:00,mcc,107.81
2023-09-21T11:13:00,mcc,85.30
2023-09-21T11:14:00,mcc,84.44
2023-09-21T11:15:00,mcc,85.89
2023-09-21T11:16:00,mcc,86.40
2023-09-21T11:17:00,mcc,86.61
2023-09-21T11:18:00,mcc,87.56
2023-09-21T11:19:00,mcc,110.34
2023-09-21T11:20:00,mcc,87.06
2023-09-21T11:21:00,mcc,86.93
2023-09-21T11:22:00,mcc,91.62
2023-09-21T11:23:00,mcc,89.73
2023-09-21T11:24:00,mcc,95.23
2023-09-21T11:25:00,mcc,87.49
2023-09-21T11:26:00,mcc,83.96
2023-09-21T11:27:00,mcc,89.79
2023-09-21T11:28:00,mcc,94.91
2023-09-21T11:29:00,mcc,86.48
2023-09-21T11:30:00,mcc,83.45
2023-09-21T11:31:00,mcc,92.91
2023-09-21T11:32:00,mcc,95.88
2023-09-21T11:33:00,mcc,91.52
2023-09-21T11:34:00,mcc,85.19
2023-09-21T11:35:00,mcc,84.14
2023-09-21T11:36:00,mcc,85.67
2023-09-21T11:37:00,mcc,85.77
2023-09-21T11:38:00,mcc,87.87
2023-09-21T11:39:00,mcc,84.94
2023-09-21T11:40:00,mcc,82.38
2023-09-21T11:41:00,mcc,80.96
2023-09-21T11:42:00,mcc,95.33
2023-09-21T11:43:00,mcc,82.51
2023-09-21T11:44:00,mcc,82.13
2023-09-21T11:45:00,mcc,87.21
2023-09-21T11:46:00,mcc,85.99
2023-09-21T11:47:00,mcc,86.26
2023-09-21T11:48:00,mcc,100.15
2023-09-21T11:49:00,mcc,91.42
2023-09-21T11:50:00,mcc,85.65
2023-09-21T11:51:00,mcc,85.97
2023-09-21T11:52:00,mcc,96.42
2023-09-21T11:53:00,mcc,95.24
2023-09-21T11:54:00,mcc,86.97
2023-09-21T11:55:00,mcc,85.73
2023-09-21T11:56:00,mcc,85.98
2023-09-21T11:57:00,mcc,85.10
2023-09-21T11:58:00,mcc,84.48
2023-09-21T11:59:00,mcc,88.02
2023-09-21T12:00:00,mcc,86.14
2023-09-21T12:01:00,mcc,87.09
2023-09-21T12:02:00,mcc,98.60
2023-09-21T12:03:00,mcc,95.22
2023-09-21T12:04:00,mcc,88.19
2023-09-21T12:05:00,mcc,89.44
2023-09-21T12:06:00,mcc,86.52
2023-09-21T12:07:00,mcc,95.59
2023-09-21T12:08:00,mcc,98.78
2023-09-21T12:09:00,mcc,89.16
2023-09-21T12:10:00,mcc,88.20
2023-09-21T12:11:00,mcc,91.78
2023-09-21T12:12:00,mcc,85.92
2023-09-21T12:13:00,mcc,86.38
2023-09-21T12:14:00,mcc,89.37
2023-09-21T12:15:00,mcc,95.30
2023-09-21T12:16:00,mcc,87.78
2023-09-21T12:17:00,mcc,88.73
2023-09-21T12:18:00,mcc,94.30
2023-09-21T12:19:00,mcc,85.73
2023-09-21T12:20:00,mcc,88.06
2023-09-21T12:21:00,mcc,86.77
2023-09-21T12:22:00,mcc,87.76
2023-09-21T12:23:00,mcc,100.47
2023-09-21T12:24:00,mcc,87.14
2023-09-21T12:25:00,mcc,86.86
2023-09-21T12:26:00,mcc,87.34
2023-09-21T12:27:00,mcc,87.77
2023-09-21T12:28:00,mcc,92.14
2023-09-21T12:29:00,mcc,89.63
2023-09-21T12:30:00,mcc,87.01
2023-09-21T12:31:00,mcc,86.03
2023-09-21T12:32:00,mcc,86.65
2023-09-21T12:33:00,mcc,90.55
2023-09-21T12:34:00,mcc,81.98
2023-09-21T12:35:00,mcc,89.91
2023-09-21T12:36:00,mcc,83.68
2023-09-21T12:37:00,mcc,82.84
2023-09-21T12:38:00,mcc,83.61
2023-09-21T12:39:00,mcc,90.53
2023-09-21T12:40:00,mcc,89.78
2023-09-21T12:41:00,mcc,83.23
2023-09-21T12:42:00,mcc,85.09
2023-09-21T12:43:00,mcc,102.45
2023-09-21T12:44:00,mcc,90.01
2023-09-21T12:45:00,mcc,89.11
2023-09-21T12:46:00,mcc,94.62
2023-09-21T12:47:00,mcc,91.19
2023-09-21T12:48:00,mcc,88.68
2023-09-21T12:49:00,mcc,87.07
2023-09-21T12:50:00,mcc,100.11
2023-09-21T12:51:00,mcc,96.32
2023-09-21T12:52:00,mcc,95.48
2023-09-21T12:53:00,mcc,89.94
2023-09-21T12:54:00,mcc,87.83
2023-09-21T12:55:00,mcc,84.81
2023-09-21T12:56:00,mcc,100.87
2023-09-21T12:57:00,mcc,82.45
2023-09-21T12:58:00,mcc,83.43
2023-09-21T12:59:00,mcc,87.39
2023-09-21T13:00:00,mcc,93.07
2023-09-21T13:01:00,mcc,86.99
2023-09-21T13:02:00,mcc,85.00
2023-09-21T13:03:00,mcc,84.67
2023-09-21T13:04:00,mcc,88.23
2023-09-21T13:05:00,mcc,97.00
2023-09-21T13:06:00,mcc,87.31
2023-09-21T13:07:00,mcc,85.48
2023-09-21T13:08:00,mcc,89.36
2023-09-21T13:09:00,mcc,99.83
2023-09-21T13:10:00,mcc,97.75
2023-09-21T13:11:00,mcc,91.70
2023-09-21T13:12:00,mcc,90.26
2023-09-21T13:13:00,mcc,88.33
2023-09-21T13:14:00,mcc,85.55
2023-09-21T13:15:00,mcc,87.12
2023-09-21T13:16:00,mcc,88.54
2023-09-21T13:17:00,mcc,87.59